Location: Haliburton Scout Reserve
(45.0900°N, 78.3200°W)
Time: 01:46:17
(UTC-05:00)

YUBILEINY - Pass Details

Date: 04 December 2023
Orbit: 1479 x 1508 km, 82.5° (Epoch: 01 March)

Event Time Altitude Azimuth Distance (km) Brightness Sun altitude
Rises 19:10:53 0° 355° (N) 4,631 ? -27.2°
Reaches altitude 10° 19:14:18 10° 6° (N) 3,643 ? -27.9°
Enters shadow 19:17:33 21° 23° (NNE) 2,861 ? -28.4°
